| time (UTC) | temp C | wind direction | speed KPH | gust KPH | rain 1hr cm | rain 24hr cm | rain mn cm | humidity % | barometer mb |
| 20260510004804 | 12 | 303 | 3.2 | 8.0 | 0.00 | 0.05 | 0.00 | 82 | 1011.3 |
| 20260510003805 | 12 | 348 | 3.2 | 11.3 | 0.00 | 0.05 | 0.00 | 82 | 1011.2 |
| 20260510002804 | 13 | 350 | 3.2 | 11.3 | 0.00 | 0.05 | 0.00 | 82 | 1011.3 |
| 20260510002306 | 13 | 344 | 3.2 | 9.7 | 0.00 | 0.05 | 0.00 | 82 | 1011.4 |
| 20260510001805 | 13 | 308 | 3.2 | 9.7 | 0.00 | 0.05 | 0.00 | 82 | 1011.5 |
| 20260509235805 | 13 | 325 | 3.2 | 14.5 | 0.00 | 0.05 | 0.00 | 80 | 1011.4 |
| 20260509231805 | 13 | 287 | 1.6 | 4.8 | 0.00 | 0.13 | 0.00 | 81 | 1011.3 |
| 20260509225805 | 13 | 332 | 3.2 | 9.7 | 0.00 | 0.13 | 0.13 | 81 | 1011.3 |
| 20260509225306 | 13 | 322 | 3.2 | 9.7 | 0.00 | 0.13 | 0.13 | 81 | 1011.2 |
| 20260509222804 | 13 | 309 | 4.8 | 11.3 | 0.00 | 0.13 | 0.13 | 79 | 1011.4 |
| 20260509222307 | 13 | 339 | 3.2 | 9.7 | 0.00 | 0.13 | 0.13 | 80 | 1011.4 |
| 20260509220804 | 13 | 319 | 3.2 | 8.0 | 0.00 | 0.13 | 0.13 | 78 | 1011.5 |
| 20260509220304 | 13 | 319 | 3.2 | 8.0 | 0.00 | 0.13 | 0.13 | 79 | 1011.4 |
| 20260509215804 | 13 | 324 | 3.2 | 8.0 | 0.00 | 0.13 | 0.13 | 79 | 1011.4 |
| 20260509205805 | 13 | 321 | 1.6 | 9.7 | 0.00 | 0.13 | 0.13 | 80 | 1010.9 |
| 20260509205307 | 13 | 330 | 3.2 | 9.7 | 0.00 | 0.13 | 0.13 | 81 | 1010.9 |
| 20260509204804 | 13 | 316 | 3.2 | 4.8 | 0.00 | 0.13 | 0.13 | 81 | 1010.6 |
| 20260509204304 | 13 | 310 | 1.6 | 9.7 | 0.00 | 0.13 | 0.13 | 81 | 1010.7 |
| 20260509203805 | 13 | 333 | 3.2 | 11.3 | 0.00 | 0.13 | 0.13 | 81 | 1010.3 |
| 20260509203304 | 13 | 326 | 3.2 | 9.7 | 0.00 | 0.13 | 0.13 | 82 | 1010.6 |
| 20260509202306 | 14 | 311 | 4.8 | 16.1 | 0.00 | 0.13 | 0.13 | 82 | 1010.5 |
| 20260509201805 | 14 | 305 | 4.8 | 14.5 | 0.00 | 0.13 | 0.13 | 82 | 1010.6 |
| 20260509201305 | 14 | 302 | 3.2 | 16.1 | 0.00 | 0.13 | 0.13 | 82 | 1010.5 |
| 20260509200304 | 14 | 301 | 3.2 | 8.0 | 0.00 | 0.13 | 0.13 | 81 | 1010.6 |
| 20260509195805 | 14 | 320 | 3.2 | 11.3 | 0.00 | 0.13 | 0.13 | 81 | 1010.6 |
| 20260509195306 | 14 | 323 | 3.2 | 9.7 | 0.00 | 0.13 | 0.13 | 80 | 1010.6 |
| 20260509194805 | 14 | 297 | 4.8 | 14.5 | 0.00 | 0.13 | 0.13 | 80 | 1010.6 |
| 20260509185306 | 15 | 297 | 3.2 | 11.3 | 0.00 | 0.13 | 0.13 | 78 | 1010.2 |
| 20260509184804 | 15 | 283 | 4.8 | 11.3 | 0.00 | 0.13 | 0.13 | 78 | 1009.9 |
| 20260509184304 | 15 | 317 | 4.8 | 11.3 | 0.00 | 0.13 | 0.13 | 79 | 1009.8 |
| 20260509182805 | 15 | 318 | 4.8 | 8.0 | 0.00 | 0.13 | 0.13 | 80 | 1009.9 |
| 20260509182306 | 15 | 299 | 3.2 | 9.7 | 0.00 | 0.13 | 0.13 | 81 | 1009.9 |
| 20260509181805 | 15 | 307 | 4.8 | 19.3 | 0.00 | 0.13 | 0.13 | 82 | 1010.0 |
| 20260509180805 | 15 | 310 | 4.8 | 16.1 | 0.00 | 0.23 | 0.13 | 87 | 1010.0 |
| 20260509172804 | 16 | 301 | 4.8 | 11.3 | 0.00 | 0.36 | 0.13 | 79 | 1009.3 |
| 20260509163804 | 16 | 297 | 4.8 | 12.9 | 0.00 | 0.36 | 0.13 | 78 | 1009.6 |
| 20260509162804 | 17 | 305 | 4.8 | 16.1 | 0.00 | 0.36 | 0.13 | 77 | 1009.5 |
| 20260509161305 | 16 | 312 | 3.2 | 8.0 | 0.00 | 0.36 | 0.13 | 79 | 1009.7 |
| 20260509160304 | 16 | 313 | 6.4 | 20.9 | 0.00 | 0.36 | 0.13 | 81 | 1009.7 |
| 20260509155804 | 16 | 304 | 4.8 | 19.3 | 0.00 | 0.36 | 0.13 | 79 | 1009.5 |
| 20260509151304 | 17 | 310 | 6.4 | 14.5 | 0.00 | 0.36 | 0.13 | 76 | 1009.5 |
| 20260509150304 | 17 | 291 | 8.0 | 19.3 | 0.00 | 0.36 | 0.13 | 74 | 1009.4 |
| 20260509144805 | 18 | 316 | 4.8 | 19.3 | 0.00 | 0.36 | 0.13 | 73 | 1009.5 |
| 20260509144305 | 18 | 310 | 8.0 | 16.1 | 0.00 | 0.36 | 0.13 | 72 | 1009.4 |
| 20260509143806 | 18 | 292 | 4.8 | 16.1 | 0.00 | 0.36 | 0.13 | 73 | 1009.6 |
| 20260509143306 | 17 | 313 | 4.8 | 14.5 | 0.00 | 0.36 | 0.13 | 73 | 1009.6 |
| 20260509140305 | 17 | 313 | 3.2 | 9.7 | 0.00 | 0.36 | 0.13 | 76 | 1009.6 |
| 20260509135806 | 16 | 296 | 4.8 | 14.5 | 0.00 | 0.36 | 0.13 | 76 | 1009.6 |
| 20260509135306 | 17 | 328 | 4.8 | 14.5 | 0.00 | 0.36 | 0.13 | 73 | 1009.5 |
| 20260509134805 | 17 | 318 | 4.8 | 19.3 | 0.00 | 0.36 | 0.13 | 75 | 1009.2 |
| 20260509134305 | 16 | 304 | 8.0 | 19.3 | 0.00 | 0.36 | 0.13 | 79 | 1009.3 |
| 20260509133806 | 17 | 327 | 8.0 | 27.4 | 0.00 | 0.36 | 0.13 | 75 | 1009.3 |
| 20260509133305 | 17 | 332 | 4.8 | 16.1 | 0.00 | 0.36 | 0.13 | 73 | 1009.3 |
| 20260509132806 | 18 | 303 | 4.8 | 16.1 | 0.00 | 0.36 | 0.13 | 73 | 1009.2 |
| 20260509131805 | 18 | 314 | 6.4 | 29.0 | 0.00 | 0.36 | 0.13 | 71 | 1009.4 |
| 20260509131305 | 18 | 304 | 4.8 | 16.1 | 0.00 | 0.36 | 0.13 | 71 | 1009.4 |
| 20260509130806 | 18 | 319 | 4.8 | 9.7 | 0.00 | 0.36 | 0.13 | 69 | 1009.5 |
| 20260509130305 | 18 | 289 | 4.8 | 16.1 | 0.00 | 0.36 | 0.13 | 71 | 1009.5 |
| 20260509124305 | 18 | 309 | 8.0 | 27.4 | 0.00 | 0.36 | 0.13 | 71 | 1009.4 |
| 20260509123805 | 17 | 323 | 8.0 | 22.5 | 0.00 | 0.36 | 0.13 | 76 | 1009.4 |
| 20260509114805 | 17 | 308 | 6.4 | 20.9 | 0.00 | 0.36 | 0.13 | 79 | 1009.1 |
| 20260509114305 | 16 | 306 | 4.8 | 14.5 | 0.00 | 0.36 | 0.13 | 83 | 1009.1 |
| 20260509112307 | 17 | 303 | 4.8 | 19.3 | 0.00 | 0.36 | 0.13 | 74 | 1009.2 |
| 20260509111305 | 16 | 315 | 4.8 | 11.3 | 0.00 | 0.36 | 0.13 | 78 | 1009.2 |
| 20260509110805 | 17 | 321 | 4.8 | 16.1 | 0.00 | 0.36 | 0.13 | 76 | 1009.2 |
| 20260509110305 | 17 | 308 | 4.8 | 9.7 | 0.00 | 0.36 | 0.13 | 78 | 1009.2 |
| 20260509105806 | 17 | 322 | 6.4 | 19.3 | 0.00 | 0.36 | 0.13 | 79 | 1009.1 |
| 20260509105306 | 16 | 315 | 6.4 | 14.5 | 0.00 | 0.36 | 0.13 | 81 | 1009.2 |
| 20260509102306 | 16 | 296 | 4.8 | 19.3 | 0.00 | 0.36 | 0.13 | 80 | 1009.0 |
| 20260509101805 | 16 | 300 | 4.8 | 19.3 | 0.00 | 0.36 | 0.13 | 79 | 1008.9 |
| 20260509101306 | 16 | 311 | 6.4 | 19.3 | 0.00 | 0.36 | 0.13 | 81 | 1008.9 |
| 20260509100805 | 16 | 319 | 8.0 | 16.1 | 0.00 | 0.36 | 0.13 | 81 | 1008.8 |
| 20260509095805 | 16 | 324 | 4.8 | 11.3 | 0.00 | 0.36 | 0.13 | 85 | 1008.9 |
| 20260509094306 | 15 | 331 | 4.8 | 19.3 | 0.00 | 0.38 | 0.13 | 84 | 1008.8 |
| 20260509093805 | 15 | 325 | 8.0 | 25.7 | 0.00 | 0.38 | 0.13 | 84 | 1008.8 |
| 20260509092805 | 16 | 327 | 4.8 | 11.3 | 0.00 | 0.38 | 0.13 | 81 | 1008.7 |
| 20260509092306 | 16 | 305 | 3.2 | 14.5 | 0.00 | 0.38 | 0.13 | 82 | 1008.7 |
| 20260509090805 | 14 | 320 | 3.2 | 11.3 | 0.00 | 0.38 | 0.13 | 85 | 1008.5 |
| 20260509085306 | 14 | 321 | 3.2 | 19.3 | 0.00 | 0.38 | 0.13 | 85 | 1008.4 |
| 20260509083305 | 14 | 339 | 4.8 | 11.3 | 0.00 | 0.38 | 0.13 | 88 | 1008.2 |
| 20260509082307 | 14 | 310 | 3.2 | 8.0 | 0.00 | 0.38 | 0.13 | 89 | 1008.2 |
| 20260509081806 | 13 | 306 | 4.8 | 14.5 | 0.00 | 0.38 | 0.13 | 91 | 1008.3 |
| 20260509074306 | 13 | 341 | 4.8 | 19.3 | 0.00 | 0.46 | 0.13 | 92 | 1007.5 |
| 20260509073805 | 13 | 327 | 3.2 | 8.0 | 0.00 | 0.46 | 0.13 | 91 | 1007.7 |
| 20260509073305 | 13 | 334 | 3.2 | 11.3 | 0.00 | 0.46 | 0.13 | 91 | 1007.4 |
| 20260509065805 | 13 | 336 | 4.8 | 12.9 | 0.00 | 0.46 | 0.13 | 92 | 1007.2 |
| 20260509065306 | 13 | 311 | 3.2 | 9.7 | 0.00 | 0.46 | 0.13 | 92 | 1007.1 |
| 20260509064806 | 13 | 330 | 4.8 | 14.5 | 0.00 | 0.46 | 0.13 | 92 | 1007.0 |
| 20260509064305 | 13 | 326 | 3.2 | 12.9 | 0.00 | 0.46 | 0.13 | 92 | 1007.0 |
| 20260509062306 | 13 | 303 | 4.8 | 11.3 | 0.00 | 0.46 | 0.13 | 92 | 1006.7 |
| 20260509061806 | 13 | 309 | 4.8 | 16.1 | 0.00 | 0.46 | 0.13 | 92 | 1006.7 |
| 20260509061305 | 13 | 317 | 3.2 | 14.5 | 0.00 | 0.46 | 0.13 | 92 | 1006.8 |
| 20260509060805 | 13 | 287 | 3.2 | 8.0 | 0.00 | 0.46 | 0.13 | 92 | 1006.8 |
| 20260509060305 | 13 | 318 | 4.8 | 11.3 | 0.00 | 0.46 | 0.13 | 92 | 1006.7 |
| 20260509054305 | 13 | 310 | 4.8 | 19.3 | 0.00 | 0.46 | 0.13 | 92 | 1006.3 |
| 20260509045805 | 13 | 343 | 4.8 | 14.5 | 0.00 | 0.46 | 0.13 | 93 | 1006.1 |
| 20260509045306 | 13 | 313 | 4.8 | 20.9 | 0.00 | 0.46 | 0.13 | 93 | 1006.3 |
| 20260509044305 | 13 | 307 | 4.8 | 19.3 | 0.00 | 0.46 | 0.13 | 93 | 1006.3 |
| 20260509042805 | 13 | 326 | 4.8 | 19.3 | 0.00 | 0.51 | 0.13 | 93 | 1006.2 |
| 20260509042307 | 13 | 309 | 3.2 | 16.1 | 0.00 | 0.51 | 0.13 | 93 | 1006.1 |
| 20260509041305 | 13 | 310 | 4.8 | 11.3 | 0.00 | 0.51 | 0.13 | 93 | 1006.1 |
| 20260509040805 | 13 | 321 | 4.8 | 9.7 | 0.00 | 0.51 | 0.13 | 93 | 1006.2 |
| 20260509040305 | 13 | 311 | 6.4 | 19.3 | 0.03 | 0.51 | 0.13 | 92 | 1006.0 |
| 20260509035805 | 13 | 334 | 3.2 | 9.7 | 0.03 | 0.51 | 0.13 | 93 | 1006.0 |
| 20260509034805 | 13 | 325 | 4.8 | 19.3 | 0.03 | 0.51 | 0.13 | 93 | 1006.3 |
| 20260509032805 | 13 | 306 | 4.8 | 11.3 | 0.03 | 0.71 | 0.13 | 92 | 1006.1 |
| 20260509031305 | 13 | 298 | 6.4 | 20.9 | 0.05 | 0.71 | 0.13 | 93 | 1006.0 |
| 20260509030805 | 13 | 324 | 3.2 | 19.3 | 0.05 | 0.71 | 0.13 | 93 | 1006.2 |
| 20260509030304 | 13 | 302 | 4.8 | 19.3 | 0.03 | 0.71 | 0.10 | 92 | 1006.1 |
| 20260509025805 | 13 | 337 | 6.4 | 19.3 | 0.03 | 0.71 | 0.10 | 92 | 1006.0 |
| 20260509024805 | 13 | 317 | 3.2 | 14.5 | 0.03 | 0.71 | 0.10 | 92 | 1006.3 |
| 20260509024305 | 13 | 316 | 4.8 | 11.3 | 0.03 | 0.71 | 0.10 | 92 | 1006.4 |
| 20260509022805 | 13 | 314 | 6.4 | 19.3 | 0.05 | 0.71 | 0.10 | 92 | 1006.1 |
| 20260509022306 | 13 | 313 | 3.2 | 9.7 | 0.05 | 0.71 | 0.10 | 91 | 1006.1 |
| 20260509021805 | 13 | 322 | 6.4 | 14.5 | 0.05 | 0.71 | 0.10 | 91 | 1006.1 |
| 20260509021304 | 13 | 308 | 4.8 | 14.5 | 0.03 | 0.69 | 0.08 | 91 | 1006.3 |
| 20260509020805 | 13 | 343 | 6.4 | 19.3 | 0.03 | 0.69 | 0.08 | 91 | 1006.4 |
| 20260509015805 | 13 | 298 | 4.8 | 11.3 | 0.03 | 0.69 | 0.08 | 91 | 1006.0 |
| 20260509015306 | 13 | 315 | 6.4 | 19.3 | 0.03 | 0.69 | 0.08 | 91 | 1006.2 |
| 20260509013304 | 13 | 317 | 4.8 | 14.5 | 0.00 | 0.66 | 0.05 | 91 | 1006.4 |
| 20260509012307 | 13 | 313 | 4.8 | 25.7 | 0.00 | 0.66 | 0.05 | 91 | 1006.5 |
| 20260509011804 | 13 | 331 | 8.0 | 16.1 | 0.00 | 0.66 | 0.05 | 91 | 1006.4 |
| 20260509011304 | 13 | 310 | 3.2 | 11.3 | 0.00 | 0.66 | 0.05 | 92 | 1006.6 |
| 20260509010805 | 13 | 321 | 4.8 | 19.3 | 0.00 | 0.66 | 0.05 | 92 | 1006.5 |
| 20260509010305 | 13 | 290 | 6.4 | 16.1 | 0.00 | 0.66 | 0.05 | 91 | 1006.5 |
| 20260509005805 | 13 | 323 | 4.8 | 19.3 | 0.00 | 0.66 | 0.05 | 91 | 1006.6 |
| 20260509005306 | 13 | 336 | 6.4 | 19.3 | 0.03 | 0.66 | 0.05 | 91 | 1006.6 |